(349217) = 2007 RD314

Discovered at Palomar on 2002-05-10 by NEAT.

Orbit

Orbit type: Main Belt

Note: WebGL enabled browser required.

epoch2023-09-13.0
epoch JD2460200.5
perihelion date2023-09-22.95713
perihelion JD2460210.45713
argument of perihelion (°)123.07600
ascending node (°)149.89992
inclination (°)6.09521
eccentricity0.1232009
perihelion distance (AU)2.2821209
Tisserand w.r.t. Jupiter3.4
ΔV w.r.t. Earth (km/sec)9.6
semimajor axis (AU)2.6027867
mean anomaly (°)357.66288
mean daily motion (°/day)0.23471780
aphelion distance (AU)2.923
period (years)4.2
P-vector [x]0.05429193
P-vector [y]-0.94787655
P-vector [z]-0.31397840
Q-vector [x]0.99710416
Q-vector [y]0.06823382
Q-vector [z]-0.03357725
absolute magnitude16.77
phase slope0.15
uncertainty0
referenceMPEC 2023-N43
observations used307
oppositions14
arc length (days)9647
first opposition used1997
last opposition used2023
residual rms (arc-secs)0.68
perturbers coarse indicatorM-v
perturbers precise indicator003Ek
first observation date used1997-02-07.0
last observation date used2023-07-08.0
computer nameMPCLINUX
JD of orbit computation2456760.658393
perihelion JD uncertainty (days)1.5413E-04
argument of perihelion uncertainty (°)5.7297E-05
ascending node uncertainty (°)4.5091E-05
inclination uncertainty (°)8.6824E-06
eccentricity uncertainty 4.9620E-08
perihelion distance uncertainty (AU)1.3102E-07
Minimum Orbit Intersection Distances (in AU)
for orbit epoch: 2460000.5, reference: E2023-N43
Mercury1.82639
Venus1.56088
Earth1.27222
Mars0.82197
Jupiter2.186
Saturn6.14946
Uranus15.7092
Neptune27.0699

Observations

316 total observations over interval: 1997 02 07.33613 – 2023 07 08.332233
These data are available for download (format description).

Date (UT) J2000 RA J2000 Dec Magn Location Ref
1997 02 07.33613 09 32 39.27 +12 49 43.4 21.3 V 691 – Steward Observatory, Kitt Peak-Spacewatch MPS 391170
1997 02 07.35788 09 32 38.02 +12 49 51.7 20.4 V 691 – Steward Observatory, Kitt Peak-Spacewatch MPS 391170
1997 02 07.37950 09 32 36.85 +12 50 00.2 20.6 V 691 – Steward Observatory, Kitt Peak-Spacewatch MPS 391170
2002 05 10.28441 15 41 35.41 -08 48 12.3 19.3   644 – Palomar Mountain/NEAT MPS 391170
2002 05 10.34833 15 41 32.01 -08 47 56.0 19.5   644 – Palomar Mountain/NEAT MPS 391170
2002 05 10.41151 15 41 28.68 -08 47 39.7 20.4   644 – Palomar Mountain/NEAT MPS 391170
2002 06 02.17801 15 22 22.80 -07 42 47.5 20.2   644 – Palomar Mountain/NEAT MPS 391170
2002 06 02.19935 15 22 21.84 -07 42 46.6 19.6   644 – Palomar Mountain/NEAT MPS 391170
2002 06 02.22022 15 22 20.88 -07 42 44.7 19.5   644 – Palomar Mountain/NEAT MPS 391170
2007 09 14.28848 23 46 34.95 -05 46 18.7 20.3 V 691 – Steward Observatory, Kitt Peak-Spacewatch MPS 310267
2007 09 14.30606 23 46 34.03 -05 46 27.0 19.8 V 691 – Steward Observatory, Kitt Peak-Spacewatch MPS 310267
2007 09 14.32364 23 46 33.17 -05 46 34.3 19.6 V 691 – Steward Observatory, Kitt Peak-Spacewatch MPS 310267
2007 09 20.28724 23 41 44.21 -06 32 28.3 20.0 V 691 – Steward Observatory, Kitt Peak-Spacewatch MPS 310267
2007 09 20.30484 23 41 43.38 -06 32 37.8 19.6 V 691 – Steward Observatory, Kitt Peak-Spacewatch MPS 310267
2007 09 20.32243 23 41 42.43 -06 32 45.1 20.1 V 691 – Steward Observatory, Kitt Peak-Spacewatch MPS 310267
2007 10 15.19175 23 25 13.15 -08 56 04.9 20.7 V G96 – Mt. Lemmon Survey MPS 310267
2007 10 15.20004 23 25 12.90 -08 56 07.0 20.8 V G96 – Mt. Lemmon Survey MPS 310267
2007 10 15.20831 23 25 12.68 -08 56 08.7 20.7 V G96 – Mt. Lemmon Survey MPS 310267
2007 10 15.21670 23 25 12.46 -08 56 10.2 20.3 V G96 – Mt. Lemmon Survey MPS 310267
2010 03 18.37321 12 15 56.52 +03 42 55.6 19.8 V G96 – Mt. Lemmon Survey MPS 391170
2010 03 18.37922 12 15 56.19 +03 42 58.6 19.8 V G96 – Mt. Lemmon Survey MPS 391170
2010 03 18.38523 12 15 55.90 +03 43 01.5 20.0 V G96 – Mt. Lemmon Survey MPS 391170
2010 03 18.39128 12 15 55.62 +03 43 04.2 20.1 V G96 – Mt. Lemmon Survey MPS 391170
2010 04 15.23202 11 54 35.71 +06 51 58.2 20.4 V G96 – Mt. Lemmon Survey MPS 391170
2010 04 15.23905 11 54 35.46 +06 52 00.4 20.4 V G96 – Mt. Lemmon Survey MPS 391170
2010 04 15.24612 11 54 35.17 +06 52 02.3 20.2 V G96 – Mt. Lemmon Survey MPS 391170
2010 04 15.25318 11 54 34.88 +06 52 04.4 20.5 V G96 – Mt. Lemmon Survey MPS 391170
2011 07 28.48500 22 16 40.749 -09 00 22.24 20.2 w F51 – Pan-STARRS 1, Haleakala MPS 391170
2011 07 28.49921 22 16 40.258 -09 00 27.18 20.0 w F51 – Pan-STARRS 1, Haleakala MPS 391170
2011 07 28.52769 22 16 39.275 -09 00 37.13 20.0 w F51 – Pan-STARRS 1, Haleakala MPS 391170
2011 08 23.27285 21 57 57.17 -12 03 10.3 19.5 R H15 – ISON-NM Observatory, Mayhill MPS 390601
2011 08 23.28605 21 57 56.46 -12 03 15.7 19.3 R H15 – ISON-NM Observatory, Mayhill MPS 390601
2011 08 23.29910 21 57 55.78 -12 03 21.7 19.0 R H15 – ISON-NM Observatory, Mayhill MPS 390601
2011 08 23.31346 21 57 55.07 -12 03 28.2 18.9 R H15 – ISON-NM Observatory, Mayhill MPS 390601
2011 08 31.40468 21 51 33.458 -13 02 50.18 19.9 w F51 – Pan-STARRS 1, Haleakala MPS 390601
2011 08 31.41959 21 51 32.744 -13 02 56.62 20.0 w F51 – Pan-STARRS 1, Haleakala MPS 390601
2011 08 31.44939 21 51 31.334 -13 03 09.10 20.3 w F51 – Pan-STARRS 1, Haleakala MPS 390601
2012 11 07.49394 05 12 30.78 +14 17 09.3 21.2 V G96 – Mt. Lemmon Survey MPS 439527
2012 11 07.50006 05 12 30.60 +14 17 08.5 21.1 V G96 – Mt. Lemmon Survey MPS 439527
2012 11 07.50631 05 12 30.34 +14 17 07.3 20.7 V G96 – Mt. Lemmon Survey MPS 439527
2012 11 07.51251 05 12 30.09 +14 17 06.6 20.9 V G96 – Mt. Lemmon Survey MPS 439527
2012 12 04.21480 04 49 50.01 +13 24 37.7 19.6 V G96 – Mt. Lemmon Survey MPS 444910
2012 12 04.22123 04 49 49.58 +13 24 35.8 19.9 V G96 – Mt. Lemmon Survey MPS 444910
2012 12 04.22763 04 49 49.22 +13 24 35.9 20.5 V G96 – Mt. Lemmon Survey MPS 444910
2012 12 04.23405 04 49 48.93 +13 24 34.6 20.9 V G96 – Mt. Lemmon Survey MPS 444910
2012 12 13.20741 04 41 12.66 +13 15 56.4 20.8 V G96 – Mt. Lemmon Survey MPS 446020
2012 12 13.21448 04 41 12.22 +13 15 56.2 20.9 V G96 – Mt. Lemmon Survey MPS 446020
2012 12 13.22152 04 41 11.83 +13 15 55.8 20.9 V G96 – Mt. Lemmon Survey MPS 446020
2012 12 13.22868 04 41 11.43 +13 15 55.6 20.4 V G96 – Mt. Lemmon Survey MPS 446020
2013 01 07.24371 04 22 51.001 +13 27 31.31 21.5 w F51 – Pan-STARRS 1, Haleakala MPS 450902
2013 01 07.26143 04 22 50.486 +13 27 33.01 21.5 w F51 – Pan-STARRS 1, Haleakala MPS 450902
2013 01 07.27839 04 22 49.980 +13 27 34.55 21.0 w F51 – Pan-STARRS 1, Haleakala MPS 450902
2013 01 07.29440 04 22 49.499 +13 27 36.09 21.2 w F51 – Pan-STARRS 1, Haleakala MPS 450902
2014 01 23.46266 11 08 42.19 +05 48 04.1 20.5 V G96 – Mt. Lemmon Survey MPS 498390
2014 01 23.47072 11 08 42.08 +05 48 06.0 20.4 V G96 – Mt. Lemmon Survey MPS 498390
2014 01 23.47877 11 08 41.94 +05 48 07.4 20.9 V G96 – Mt. Lemmon Survey MPS 498390
2014 01 23.48682 11 08 41.78 +05 48 09.8 20.9 V G96 – Mt. Lemmon Survey MPS 498390
2014 02 10.39866 11 00 22.666 +07 21 27.23 20.0 i F51 – Pan-STARRS 1, Haleakala MPS 501600
2014 02 10.41052 11 00 22.178 +07 21 32.04 20.4 i F51 – Pan-STARRS 1, Haleakala MPS 501600
2014 02 10.42238 11 00 21.684 +07 21 36.61 20.6 i F51 – Pan-STARRS 1, Haleakala MPS 501600
2014 02 10.43428 11 00 21.189 +07 21 41.10 21.0 i F51 – Pan-STARRS 1, Haleakala MPS 501600
2014 02 22.22679 10 51 33.38 +08 44 36.4   691 – Steward Observatory, Kitt Peak-Spacewatch MPS 503934
2014 02 22.24451 10 51 32.48 +08 44 45.0   691 – Steward Observatory, Kitt Peak-Spacewatch MPS 503934
2014 02 22.26223 10 51 31.57 +08 44 52.9   691 – Steward Observatory, Kitt Peak-Spacewatch MPS 503934
2014 03 25.25335 10 27 03.58 +12 16 04.5 20.3 V G96 – Mt. Lemmon Survey MPS 508465
2014 03 25.25807 10 27 03.39 +12 16 05.9 20.4 V G96 – Mt. Lemmon Survey MPS 508465
2014 03 25.26278 10 27 03.21 +12 16 07.4 20.4 V G96 – Mt. Lemmon Survey MPS 508465
2014 03 25.26749 10 27 03.02 +12 16 08.7 20.3 V G96 – Mt. Lemmon Survey MPS 508465
2014 04 04.17523 10 22 08.76 +12 59 19.8 20.7 V G96 – Mt. Lemmon Survey MPS 509708
2014 04 04.17932 10 22 08.66 +12 59 20.6 20.5 V G96 – Mt. Lemmon Survey MPS 509708
2014 04 04.18342 10 22 08.56 +12 59 21.4 20.8 V G96 – Mt. Lemmon Survey MPS 509708
2014 04 04.18751 10 22 08.43 +12 59 22.3 20.5 V G96 – Mt. Lemmon Survey MPS 509708
2014 04 04.24572 10 22 07.231 +12 59 35.38 21.2 w F51 – Pan-STARRS 1, Haleakala MPS 509708
2014 04 04.25762 10 22 06.947 +12 59 37.98 21.3 w F51 – Pan-STARRS 1, Haleakala MPS 509708
2014 04 04.26955 10 22 06.666 +12 59 40.50 21.0 w F51 – Pan-STARRS 1, Haleakala MPS 509708
2014 04 04.28148 10 22 06.370 +12 59 43.00 20.9 w F51 – Pan-STARRS 1, Haleakala MPS 509708
2015 06 16.57663 20 15 58.609 -12 50 57.70 19.9 w F51 – Pan-STARRS 1, Haleakala MPS 612500
2015 06 16.58753 20 15 58.392 -12 50 58.49 20.0 w F51 – Pan-STARRS 1, Haleakala MPS 612500
2015 06 16.59842 20 15 58.176 -12 50 59.22 20.4 w F51 – Pan-STARRS 1, Haleakala MPS 612500
2015 06 18.53629 20 15 21.508 -12 53 38.29 19.7 w F51 – Pan-STARRS 1, Haleakala MPS 612500
2015 06 18.54831 20 15 21.231 -12 53 39.44 19.7 w F51 – Pan-STARRS 1, Haleakala MPS 612500
2015 06 18.56031 20 15 20.953 -12 53 40.53 19.7 w F51 – Pan-STARRS 1, Haleakala MPS 612500
2015 06 18.57226 20 15 20.676 -12 53 41.60 19.9 w F51 – Pan-STARRS 1, Haleakala MPS 612500
2015 06 23.51250 20 13 18.593 -13 03 08.89 19.7 w F51 – Pan-STARRS 1, Haleakala MPS 614074
2015 06 23.52418 20 13 18.228 -13 03 10.48 19.6 w F51 – Pan-STARRS 1, Haleakala MPS 614074
2015 06 23.53586 20 13 17.861 -13 03 12.09 19.6 w F51 – Pan-STARRS 1, Haleakala MPS 614074
2015 06 23.54750 20 13 17.496 -13 03 13.67 19.6 w F51 – Pan-STARRS 1, Haleakala MPS 614074
2015 07 08.38707 20 03 43.09 -13 53 27.0 18.8 V G96 – Mt. Lemmon Survey MPS 615086
2015 07 08.39217 20 03 42.81 -13 53 28.4 18.7 V G96 – Mt. Lemmon Survey MPS 615086
2015 07 08.39733 20 03 42.57 -13 53 29.8 18.8 V G96 – Mt. Lemmon Survey MPS 615086
2015 07 08.40242 20 03 42.33 -13 53 31.0 19.2 V G96 – Mt. Lemmon Survey MPS 615086
2015 07 09.44159 20 02 53.203 -13 58 05.81 19.5 i F51 – Pan-STARRS 1, Haleakala MPS 615086
